• In Österreich
  • Länderverzeichnis
  • Für 7 Tage
  • Wassertemperatur
  • Satellitenkarten
  • Wetterkarte
  • News
  • Widgets
  • user-avatar
    Anmelden

    Stündliche Wetter Sztok

    Heute, 16 Juli, Montag

    Zeit Temperatur Niederschläge Wind Luftdruck Luftfeuchtigkeit
    00:00 +16°C° 0 mm 3 m/S 747 mmHg 92%
    01:00 +16°C° 0 mm 3 m/S 747 mmHg 94%
    02:00 +16°C° 0,4 mm 3 m/S 747 mmHg 95%
    03:00 +16°C° 0,4 mm 3 m/S 747 mmHg 96%
    04:00 +16°C° 0,4 mm 3 m/S 747 mmHg 96%
    05:00 +17°C° 0,7 mm 4 m/S 747 mmHg 93%
    06:00 +18°C° 0,7 mm 4 m/S 747 mmHg 91%
    07:00 +20°C° 0 mm 5 m/S 746 mmHg 86%
    08:00 +21°C° 1,1 mm 5 m/S 746 mmHg 83%
    09:00 +22°C° 1,1 mm 5 m/S 746 mmHg 79%
    10:00 +25°C° 1,1 mm 5 m/S 746 mmHg 75%
    11:00 +25°C° 0,9 mm 4 m/S 746 mmHg 76%
    12:00 +25°C° 0,9 mm 4 m/S 745 mmHg 75%
    13:00 +25°C° 0,9 mm 4 m/S 745 mmHg 74%
    14:00 +25°C° 0,9 mm 4 m/S 745 mmHg 77%
    15:00 +23°C° 0,9 mm 5 m/S 745 mmHg 79%
    16:00 +23°C° 0,9 mm 5 m/S 745 mmHg 82%
    17:00 +22°C° 1,3 mm 4 m/S 744 mmHg 85%
    18:00 +21°C° 1,3 mm 4 m/S 744 mmHg 89%
    19:00 +20°C° 1,3 mm 4 m/S 744 mmHg 92%
    20:00 +19°C° 1 mm 4 m/S 744 mmHg 93%
    21:00 +19°C° 1 mm 4 m/S 744 mmHg 94%
    22:00 +19°C° 1 mm 3 m/S 744 mmHg 95%
    23:00 +19°C° 1,1 mm 3 m/S 744 mmHg 96%

    Morgen, 17 Juli, Dienstag

    Zeit Temperatur Niederschläge Wind Luftdruck Luftfeuchtigkeit
    00:00 +19°C° 1,1 mm 3 m/S 743 mmHg 96%
    01:00 +18°C° 1,1 mm 3 m/S 743 mmHg 96%
    02:00 +18°C° 0,2 mm 3 m/S 743 mmHg 96%
    03:00 +18°C° 0,2 mm 3 m/S 743 mmHg 96%
    04:00 +18°C° 0,2 mm 4 m/S 742 mmHg 96%
    05:00 +19°C° 0,4 mm 4 m/S 742 mmHg 95%
    06:00 +19°C° 0,4 mm 4 m/S 742 mmHg 94%
    07:00 +20°C° 0,4 mm 4 m/S 742 mmHg 92%
    08:00 +21°C° 0,8 mm 4 m/S 742 mmHg 90%
    09:00 +22°C° 0,8 mm 4 m/S 742 mmHg 87%
    10:00 +22°C° 0,8 mm 4 m/S 742 mmHg 84%
    11:00 +23°C° 0,9 mm 4 m/S 742 mmHg 83%
    12:00 +24°C° 0,9 mm 3 m/S 742 mmHg 82%
    13:00 +24°C° 0,9 mm 3 m/S 742 mmHg 81%
    14:00 +24°C° 0,5 mm 3 m/S 741 mmHg 83%
    15:00 +24°C° 0,5 mm 3 m/S 741 mmHg 85%
    16:00 +24°C° 0,5 mm 3 m/S 741 mmHg 86%
    17:00 +22°C° 1,1 mm 3 m/S 741 mmHg 89%
    18:00 +21°C° 1,1 mm 2 m/S 741 mmHg 91%
    19:00 +21°C° 1,1 mm 2 m/S 741 mmHg 93%
    20:00 +21°C° 1,2 mm 2 m/S 741 mmHg 94%
    21:00 +20°C° 1,2 mm 3 m/S 741 mmHg 96%
    22:00 +20°C° 1,2 mm 3 m/S 741 mmHg 97%
    23:00 +20°C° 0,9 mm 3 m/S 741 mmHg 97%

    übermorgen, 18 Juli, Mittwoch

    Zeit Temperatur Niederschläge Wind Luftdruck Luftfeuchtigkeit
    00:00 +20°C° 0,9 mm 3 m/S 741 mmHg 97%
    01:00 +20°C° 0,9 mm 2 m/S 741 mmHg 98%
    02:00 +20°C° 0,5 mm 2 m/S 741 mmHg 98%
    03:00 +20°C° 0,5 mm 2 m/S 741 mmHg 98%
    04:00 +19°C° 0,5 mm 2 m/S 741 mmHg 98%
    05:00 +20°C° 0,3 mm 2 m/S 741 mmHg 96%
    06:00 +21°C° 0,3 mm 2 m/S 741 mmHg 94%
    07:00 +23°C° 0,3 mm 2 m/S 742 mmHg 92%
    08:00 +24°C° 0,7 mm 2 m/S 742 mmHg 87%
    09:00 +25°C° 0,7 mm 2 m/S 742 mmHg 81%
    10:00 +27°C° 0,7 mm 2 m/S 742 mmHg 76%
    11:00 +27°C° 0,8 mm 2 m/S 742 mmHg 74%
    12:00 +28°C° 0,8 mm 2 m/S 742 mmHg 72%
    13:00 +29°C° 0,8 mm 2 m/S 742 mmHg 70%
    14:00 +28°C° 1,1 mm 3 m/S 742 mmHg 73%
    15:00 +28°C° 1,1 mm 3 m/S 742 mmHg 75%
    16:00 +28°C° 1,1 mm 4 m/S 742 mmHg 77%
    17:00 +27°C° 1,3 mm 4 m/S 742 mmHg 81%
    18:00 +25°C° 1,3 mm 4 m/S 743 mmHg 85%
    19:00 +23°C° 1,3 mm 4 m/S 743 mmHg 89%
    20:00 +23°C° 1,5 mm 4 m/S 743 mmHg 91%
    21:00 +22°C° 1,5 mm 4 m/S 743 mmHg 92%
    22:00 +21°C° 1,5 mm 4 m/S 743 mmHg 94%
    23:00 +21°C° 0,4 mm 4 m/S 743 mmHg 95%

    19 Juli, Donnerstag

    Zeit Temperatur Niederschläge Wind Luftdruck Luftfeuchtigkeit
    00:00 +20°C° 0,4 mm 4 m/S 743 mmHg 95%
    01:00 +20°C° 0,4 mm 4 m/S 743 mmHg 96%
    02:00 +20°C° 0,1 mm 4 m/S 743 mmHg 96%
    03:00 +19°C° 0,1 mm 4 m/S 744 mmHg 96%
    04:00 +19°C° 0,1 mm 4 m/S 744 mmHg 96%
    05:00 +20°C° 0 mm 4 m/S 744 mmHg 94%
    06:00 +20°C° 0 mm 4 m/S 744 mmHg 92%
    07:00 +21°C° 0 mm 4 m/S 744 mmHg 90%
    08:00 +23°C° 0,1 mm 4 m/S 744 mmHg 83%
    09:00 +25°C° 0,1 mm 4 m/S 744 mmHg 75%
    10:00 +27°C° 0,1 mm 4 m/S 744 mmHg 68%
    11:00 +27°C° 0,1 mm 4 m/S 744 mmHg 65%
    12:00 +28°C° 0,1 mm 4 m/S 744 mmHg 62%
    13:00 +29°C° 0,1 mm 4 m/S 744 mmHg 59%
    14:00 +28°C° 0,3 mm 5 m/S 744 mmHg 62%
    15:00 +28°C° 0,3 mm 5 m/S 744 mmHg 65%
    16:00 +27°C° 0,3 mm 5 m/S 745 mmHg 68%
    17:00 +26°C° 0,2 mm 5 m/S 745 mmHg 73%
    18:00 +25°C° 0,2 mm 4 m/S 745 mmHg 77%
    19:00 +23°C° 0,2 mm 4 m/S 745 mmHg 82%
    20:00 +21°C° 0 mm 4 m/S 745 mmHg 85%
    21:00 +20°C° 0 mm 4 m/S 745 mmHg 89%
    22:00 +19°C° 0 mm 4 m/S 745 mmHg 92%
    23:00 +19°C° 0 mm 4 m/S 745 mmHg 93%

    20 Juli, Freitag

    Zeit Temperatur Niederschläge Wind Luftdruck Luftfeuchtigkeit
    00:00 +18°C° 0 mm 4 m/S 745 mmHg 94%
    01:00 +18°C° 0 mm 4 m/S 745 mmHg 96%
    02:00 +17°C° 0 mm 4 m/S 745 mmHg 96%
    03:00 +17°C° 0 mm 3 m/S 745 mmHg 97%
    04:00 +17°C° 0 mm 3 m/S 745 mmHg 97%
    05:00 +18°C° 0 mm 3 m/S 745 mmHg 94%
    06:00 +19°C° 0 mm 3 m/S 745 mmHg 90%
    07:00 +20°C° 0 mm 3 m/S 746 mmHg 87%
    08:00 +22°C° 0,1 mm 3 m/S 746 mmHg 80%
    09:00 +24°C° 0,1 mm 3 m/S 746 mmHg 73%
    10:00 +26°C° 0,1 mm 4 m/S 745 mmHg 66%
    11:00 +26°C° 0,1 mm 4 m/S 745 mmHg 64%
    12:00 +27°C° 0,1 mm 4 m/S 745 mmHg 61%
    13:00 +27°C° 0,1 mm 4 m/S 745 mmHg 59%
    14:00 +27°C° 0,2 mm 4 m/S 745 mmHg 61%
    15:00 +27°C° 0,2 mm 4 m/S 745 mmHg 63%
    16:00 +26°C° 0,2 mm 4 m/S 745 mmHg 65%
    17:00 +25°C° 0,3 mm 4 m/S 745 mmHg 71%
    18:00 +24°C° 0,3 mm 3 m/S 745 mmHg 77%
    19:00 +22°C° 0,3 mm 3 m/S 745 mmHg 83%
    20:00 +20°C° 0 mm 3 m/S 745 mmHg 87%
    21:00 +19°C° 0 mm 3 m/S 746 mmHg 90%
    22:00 +18°C° 0 mm 2 m/S 746 mmHg 94%
    23:00 +18°C° 0 mm 2 m/S 746 mmHg 93%

    21 Juli, Samstag

    Zeit Temperatur Niederschläge Wind Luftdruck Luftfeuchtigkeit
    00:00 +17°C° 0 mm 2 m/S 746 mmHg 92%
    01:00 +16°C° 0 mm 2 m/S 746 mmHg 92%
    02:00 +16°C° 0 mm 2 m/S 746 mmHg 91%
    03:00 +15°C° 0 mm 2 m/S 745 mmHg 90%
    04:00 +14°C° 0 mm 2 m/S 745 mmHg 90%
    05:00 +16°C° 0 mm 2 m/S 745 mmHg 85%
    06:00 +17°C° 0 mm 2 m/S 746 mmHg 81%
    07:00 +18°C° 0 mm 2 m/S 746 mmHg 77%
    08:00 +19°C° 0 mm 3 m/S 746 mmHg 70%
    09:00 +21°C° 0 mm 3 m/S 746 mmHg 63%
    10:00 +22°C° 0 mm 3 m/S 746 mmHg 56%
    11:00 +24°C° 0 mm 3 m/S 745 mmHg 53%
    12:00 +25°C° 0 mm 3 m/S 745 mmHg 51%
    13:00 +25°C° 0 mm 3 m/S 745 mmHg 48%
    14:00 +26°C° 0 mm 3 m/S 745 mmHg 49%
    15:00 +26°C° 0 mm 3 m/S 745 mmHg 50%
    16:00 +26°C° 0 mm 3 m/S 745 mmHg 51%
    17:00 +24°C° 0 mm 3 m/S 745 mmHg 58%
    18:00 +23°C° 0 mm 2 m/S 745 mmHg 65%
    19:00 +21°C° 0 mm 2 m/S 745 mmHg 72%
    20:00 +19°C° 0 mm 2 m/S 745 mmHg 77%
    21:00 +18°C° 0 mm 2 m/S 745 mmHg 82%
    22:00 +16°C° 0 mm 2 m/S 745 mmHg 87%
    23:00 +16°C° 0 mm 2 m/S 745 mmHg 88%
    Mehr zeigen